Flag for Albania Weather past 2 weeks in Tirana, Albania

Now
43 °F

Passing clouds.


Feels Like: 39 °F
Forecast: 43 / 58 °F
Wind: 7 mph from Southwest

Location: Tirana Airport

Current Time: Jan 29, 2015 at 11:29:45 PM

Latest Report: Jan 29, 2015 at 10:20 PM


Visibility: N/A

Pressure: 29.62 "Hg

Humidity: 71%

Dew point: 34 °F

Location of TiranaLocation

Historic Weather in Tirana — Graph

°F

Tirana temperature yesterday

Maximum temperature yesterday: 54 °F (at 12:50 PM)
Minimum temperature yesterday: 34 °F (at 10:50 PM)
Average temperature yesterday: 45 °F

Past Weeks' High & Low Weather Summary

 TemperatureHumidityPressure
High64 °F (Jan 22, 2:20 PM)100% (Jan 21, 1:50 AM)30.24 "Hg (Jan 21, 1:50 AM)
Low28 °F (Jan 17, 4:20 AM)31% (Jan 16, 1:20 PM)29.59 "Hg (Jan 22, 11:50 PM)
Average46 °F80%29.93 "Hg
* Reported Jan 14 9:20 PM — Jan 29 9:50 PM, Tirana, Weather by CustomWeather, © 2014

Note: Actual official high and low records may vary slightly from our data, if they occured in-between our weather recording intervals... More about our weather records

Advertising

Tirana weather history for previous 24 hours

 ConditionsComfort  
Time TempWeatherWind HumidityBarometerVisibility
9:50 PM
Jan 29
46 °FPassing clouds.9 mph66%29.65 "HgN/A
9:20 PM45 °FMostly cloudy.7 mph71%29.65 "HgN/A
8:50 PM45 °FOvercast.3 mph66%29.65 "HgN/A
8:20 PM45 °FPartly cloudy.5 mph71%29.65 "HgN/A
7:50 PM43 °FPartly cloudy.5 mph76%29.65 "Hg5 mi
7:20 PM43 °FPartly cloudy.3 mph71%29.65 "Hg5 mi
6:50 PM43 °FPassing clouds.5 mph71%29.65 "HgN/A
6:20 PM43 °FPassing clouds.5 mph71%29.65 "HgN/A
5:50 PM43 °FPassing clouds.2 mph71%29.65 "HgN/A
5:20 PM48 °FPassing clouds.2 mph58%29.65 "HgN/A
4:50 PM48 °FPassing clouds.3 mph58%29.65 "HgN/A
4:20 PM50 °FPassing clouds.8 mph50%29.65 "HgN/A
3:50 PM54 °FPassing clouds.10 mph41%29.65 "HgN/A
3:20 PM54 °FPassing clouds.9 mph47%29.65 "HgN/A
2:50 PM57 °FPassing clouds.3 mph36%29.65 "HgN/A
2:20 PM59 °FSunny.No wind34%29.65 "Hg10 mi
1:50 PM57 °FSunny.2 mph33%29.65 "Hg10 mi
1:20 PM57 °FSunny.No wind36%29.68 "Hg10 mi
12:50 PM55 °FSunny.No wind38%29.68 "Hg10 mi
12:20 PM55 °FSunny.2 mph41%29.71 "Hg10 mi
11:50 AM54 °FSunny.2 mph47%29.71 "Hg10 mi
11:20 AM52 °FSunny.No wind50%29.74 "Hg10 mi
10:50 AM48 °FSunny.2 mph58%29.74 "Hg10 mi
10:20 AM46 °FSunny.No wind66%29.74 "Hg10 mi
9:50 AM43 °FSunny.No wind76%29.77 "Hg10 mi
9:20 AM41 °FSunny.2 mph81%29.77 "Hg10 mi
8:50 AM39 °FSunny.No wind81%29.74 "Hg10 mi
8:20 AM36 °FSunny.No wind87%29.74 "Hg10 mi
7:50 AM32 °FClear.No wind93%29.74 "Hg5 mi
7:20 AM30 °FClear.2 mph93%29.74 "Hg5 mi
6:50 AM30 °FClear.5 mph93%29.74 "Hg5 mi
6:20 AM32 °FClear.5 mph93%29.71 "Hg10 mi
5:50 AM30 °FClear.2 mph93%29.71 "Hg5 mi
5:20 AM30 °FClear.2 mph93%29.74 "Hg4 mi
4:50 AM30 °FClear.5 mph93%29.74 "Hg4 mi
4:20 AM30 °FClear.2 mph93%29.74 "Hg4 mi
3:50 AM32 °FClear.3 mph93%29.74 "Hg4 mi
3:20 AM32 °FClear.No wind87%29.74 "Hg4 mi
2:50 AM32 °FClear.No wind93%29.74 "Hg4 mi
2:20 AM32 °FClear.No wind93%29.74 "Hg5 mi
1:50 AM34 °FClear.5 mph93%29.74 "Hg4 mi
1:20 AM34 °FClear.3 mph93%29.74 "Hg4 mi
12:50 AM32 °FClear.3 mph93%29.77 "Hg4 mi
12:20 AM34 °FClear.5 mph93%29.77 "Hg5 mi
11:50 PM
Jan 28
36 °FClear.3 mph87%29.77 "Hg5 mi
11:20 PM36 °FClear.3 mph93%29.77 "Hg5 mi
Weather by CustomWeather, © 2014

See weather overviewHow to use our weather pages